LROD Weather Reports


time (UTC)temp
C
wind
direction
speed
KPH
gust
KPH
rain 1hr
cm
rain 24hr
cm
rain mn
cm
humidity
%
barometer
mb
20260503214836 10 110 4.8 0.0 0.00 0.00 0.00 58 1019.0
20260503213329 10 110 4.8 0.0 0.00 0.00 0.00 58 1019.0
20260503211830 10 100 3.2 0.0 0.00 0.00 0.00 58 1019.0
20260503210329 10 100 3.2 0.0 0.00 0.00 0.00 58 1019.0
20260503204836 11 1.6 0.0 0.00 0.00 0.00 50 1019.0
20260503203447 11 1.6 0.0 0.00 0.00 0.00 50 1019.0
20260503201829 10 240 4.8 0.0 0.00 0.00 0.00 54 1019.0
20260503200339 10 240 4.8 0.0 0.00 0.00 0.00 54 1019.0
20260503194855 11 3.2 0.0 0.00 0.00 0.00 50 1019.0
20260503193448 11 3.2 0.0 0.00 0.00 0.00 50 1019.0
20260503191829 12 0 0.0 0.0 0.00 0.00 0.00 44 1019.0
20260503190329 12 0 0.0 0.0 0.00 0.00 0.00 44 1019.0
20260503184947 15 340 4.8 0.0 0.00 0.00 0.00 36 1018.0
20260503183329 15 340 4.8 0.0 0.00 0.00 0.00 36 1018.0
20260503181829 16 310 9.7 0.0 0.00 0.00 0.00 36 1018.0
20260503180329 16 310 9.7 0.0 0.00 0.00 0.00 36 1018.0
20260503174849 17 330 11.3 0.0 0.00 0.00 0.00 30 1018.0
20260503173354 17 330 11.3 0.0 0.00 0.00 0.00 30 1018.0
20260503171829 18 340 11.3 0.0 0.00 0.00 0.00 28 1018.0
20260503170330 18 340 11.3 0.0 0.00 0.00 0.00 28 1018.0
20260503150329 21 320 8.0 0.0 0.00 0.00 0.00 23 1019.0
20260503130329 20 20 9.7 0.0 0.00 0.00 0.00 26 1020.0
20260503110350 18 360 8.0 0.0 0.00 0.00 0.00 28 1021.0
20260503090350 16 300 9.7 0.0 0.00 0.00 0.00 36 1023.0
20260503080340 15 290 8.0 0.0 0.00 0.00 0.00 39 1023.0
20260503071828 13 260 9.7 0.0 0.00 0.00 0.00 44 1023.0
20260503070330 13 260 9.7 0.0 0.00 0.00 0.00 44 1023.0
20260503060329 12 3.2 0.0 0.00 0.00 0.00 47 1023.0
20260503054829 11 1.6 0.0 0.00 0.00 0.00 54 1023.0
20260503053329 11 1.6 0.0 0.00 0.00 0.00 54 1023.0
20260503051829 8 90 8.0 0.0 0.00 0.00 0.00 62 1023.0
20260503050329 8 90 8.0 0.0 0.00 0.00 0.00 62 1023.0
20260503044829 6 150 4.8 0.0 0.00 0.00 0.00 71 1022.0
20260503043330 6 150 4.8 0.0 0.00 0.00 0.00 71 1022.0
20260503041829 6 110 4.8 0.0 0.00 0.00 0.00 71 1022.0
20260503040352 6 110 4.8 0.0 0.00 0.00 0.00 71 1022.0
20260503034831 5 110 4.8 0.0 0.00 0.00 0.00 76 1021.0
20260503033329 5 110 4.8 0.0 0.00 0.00 0.00 76 1021.0
20260503031829 6 100 8.0 0.0 0.00 0.00 0.00 71 1021.0
20260503030329 6 100 8.0 0.0 0.00 0.00 0.00 71 1021.0
20260503024844 5 100 8.0 0.0 0.00 0.00 0.00 70 1021.0
20260503023329 5 100 8.0 0.0 0.00 0.00 0.00 70 1021.0
20260503021829 6 110 9.7 0.0 0.00 0.00 0.00 71 1021.0
20260503020329 5 110 8.0 0.0 0.00 0.00 0.00 76 1021.0
20260503014829 6 80 9.7 0.0 0.00 0.00 0.00 71 1021.0
20260503013329 6 80 9.7 0.0 0.00 0.00 0.00 71 1021.0
20260503011829 7 90 11.3 0.0 0.00 0.00 0.00 66 1020.0
20260503010329 7 90 11.3 0.0 0.00 0.00 0.00 66 1020.0
20260503004829 7 140 11.3 0.0 0.00 0.00 0.00 71 1020.0
20260503003329 7 140 11.3 0.0 0.00 0.00 0.00 71 1020.0
20260503001829 7 110 9.7 0.0 0.00 0.00 0.00 66 1020.0
20260503000329 7 110 9.7 0.0 0.00 0.00 0.00 66 1020.0
20260502234829 8 100 9.7 0.0 0.00 0.00 0.00 62 1020.0
20260502233329 8 100 9.7 0.0 0.00 0.00 0.00 62 1020.0
20260502231829 8 90 9.7 0.0 0.00 0.00 0.00 62 1020.0
20260502230329 8 90 9.7 0.0 0.00 0.00 0.00 62 1020.0
20260502224829 8 90 11.3 0.0 0.00 0.00 0.00 62 1020.0
20260502223329 8 90 11.3 0.0 0.00 0.00 0.00 62 1020.0
20260502221829 10 90 9.7 0.0 0.00 0.00 0.00 58 1020.0
20260502220329 10 90 9.7 0.0 0.00 0.00 0.00 58 1020.0